sat.trackr.live / text

‹ back to catalog

STARLINK-5914

NORAD 55941 · 2023-037AD

PAYLOAD ACTIVE UNKNOWN

§ Identity

Operator
Country
US
Launch date
2023-03-17
Launch site
AFWTR
Launch vehicle
Mass (kg)
RCS (m²)

Purposes: comms

External: N2YO · Heavens-Above · Gunter

§ Orbital elements

Epoch: 2026-05-25T02:38:41.565984Z

Period
96.11 min
Inclination
69.9995°
Eccentricity
0.0003069
Mean motion
14.98333497 rev/d
Perigee alt
569.9 km
Apogee alt
574.2 km
Semi-major
6,950.2 km
B*
-2.3153e-4
RAAN
91.9200°
Arg perigee
267.7072°
Mean anomaly
92.3735°
Rev number
17,542

§ Raw data

STARLINK-59141 55941U 23037AD  26145.11020331 -.00002855  00000+0 -23153-3 0  99962 55941  69.9995  91.9200 0003069 267.7072  92.3735 14.98333497175422

JSON: /api/v1/satellites/55941 · /tle

For live sub-satellite position, see the globe view (requires WebGL).

§ Visibility from observer

Set your observer location to see the next 7 days of passes ≥ 10°. The values pass through the URL so the page stays shareable.

No JS? Fill the form by hand. The geolocation button needs JavaScript.